Voltar ao catálogo

FENGYUN 2G

AtivoMeteoGEO
NORAD 40367·PAYLOAD·🇨🇳 China

Lançado Dec 31, 2014 de Xichang Satellite Launch Center

Loading…

TLE

AtualizadoSource: Space-Track

Época: Sep 14, 2026, 22:49 UTC

1 40367U 14090A   26257.95129421 -.00000309  00000-0  00000-0 0  9992
2 40367   5.8603  71.6897 0003735 187.0650 177.3951  1.00273755 42905

Acompanhe FENGYUN 2G em tempo real com AllMySat

Download on the App Store